Hourly Data Report for September 28, 2016

All times are specified in Local Standard Time (LST). Add 1 hour to adjust for Daylight Saving Time where and when it is observed.

CHARLOTTETOWN A
PRINCE EDWARD ISLAND

46°17'21.000" N
63°07'09.000" W
48.50 m
8300301
71706
YYG

Download Data

Hourly Data (September 2016)
Hourly Data Report for September 28, 2016
Temp Definition
°C
Dew Point Temp Definition
°C
Rel Hum Definition
%
Wind Dir Definition
10's deg

Wind Spd Definition
km/h
Visibility Definition
km
Stn Press Definition
kPa
Hmdx Definition


Wind Chill Definition


Weather Definition


TIME
00:00 Legend Double Dagger 9.2 4.4 72 6 17 24.1 101.55     LegendNANA
01:00 Legend Double Dagger 9.3 5.1 75 6 15 24.1 101.57     LegendNANA
02:00 Legend Double Dagger 9.5 5.5 76 4 16 24.1 101.62     Cloudy
03:00 Legend Double Dagger 9.7 5.5 75 5 11 24.1 101.70     LegendNANA
04:00 Legend Double Dagger 9.7 5.7 76 6 12 24.1 101.74     LegendNANA
05:00 Legend Double Dagger 9.5 5.5 76 5 11 24.1 101.84     Cloudy
06:00 Legend Double Dagger 9.7 5.7 76 5 12 24.1 101.90     LegendNANA
07:00 Legend Double Dagger 9.9 6.6 80 5 9 24.1 101.97     LegendNANA
08:00 Legend Double Dagger 11.8 6.6 70 6 16 24.1 102.08     Mainly Clear
09:00 Legend Double Dagger 11.9 5.4 64 3 24 24.1 102.13     LegendNANA
10:00 Legend Double Dagger 13.3 6.0 61 4 17 24.1 102.19     LegendNANA
11:00 Legend Double Dagger 13.6 6.3 61 5 17 24.1 102.20     Mostly Cloudy
12:00 Legend Double Dagger 14.6 7.2 61 5 17 24.1 102.22     LegendNANA
13:00 Legend Double Dagger 14.0 6.4 60 5 14 24.1 102.21     LegendNANA
14:00 Legend Double Dagger 13.6 7.0 64 2 16 24.1 102.26     Mostly Cloudy
15:00 Legend Double Dagger 13.3 7.1 66 2 18 24.1 102.31     LegendNANA
16:00 Legend Double Dagger 13.0 7.5 69 3 14 24.1 102.34     LegendNANA
17:00 Legend Double Dagger 12.9 7.6 70 5 9 24.1 102.36     Mostly Cloudy
18:00 Legend Double Dagger 11.9 9.5 85 5 15 24.1 102.38     LegendNANA
19:00 Legend Double Dagger 11.5 9.6 88 6 13 24.1 102.41     LegendNANA
20:00 Legend Double Dagger 11.5 10.3 92 5 13 24.1 102.46     Cloudy
21:00 Legend Double Dagger 11.4 10.3 93 5 11 24.1 102.47     Rain Showers
22:00 Legend Double Dagger 11.5 10.6 94 4 9 19.3 102.49     LegendNANA
23:00 Legend Double Dagger 11.6 9.9 89 5 11 24.1 102.47     Cloudy

Notes on Data Quality.

Legend

  • E = Estimated
  • M = Missing
  • NA = Not Available
  • ‡ = Partner data that is not subject to review by the National Climate Archives
Date modified: